Location: Unspecified
(0.0000°N, 0.0000°E)
Time: 13:26:04
(UTC+01:00)

OPAL - Visible Passes

Search period start: 28 February 2015 00:00
Search period end: 10 March 2015 00:00
Orbit: 744 x 796 km, 100.2° (Epoch: 27 February)

Date Brightness Start Highest point End Pass type
(mag) Time Alt. Az. Time Alt. Az. Time Alt. Az.
28 Feb 9.3 20:11:51 10° NNW 20:16:13 31° WNW 20:20:34 10° SW visible
01 Mar 7.5 19:36:00 10° NNE 19:40:57 89° ESE 19:45:58 10° SSW visible
02 Mar 10.6 06:31:42 10° ESE 06:34:02 14° ENE 06:36:43 10° NE visible
02 Mar 10.4 20:41:40 10° NW 20:44:31 15° WNW 20:47:04 10° WSW visible
03 Mar 8.8 20:04:31 10° N 20:09:10 41° WNW 20:13:50 10° SW visible
04 Mar 7.4 19:29:00 10° NNE 19:33:54 68° ESE 19:38:53 10° S visible
05 Mar 10.1 20:33:50 10° NNW 20:37:26 19° WNW 20:40:51 10° WSW visible
06 Mar 8.3 19:57:17 10° N 20:02:07 55° WNW 20:07:00 10° SSW visible
08 Mar 9.7 20:26:15 10° NNW 20:30:21 25° WNW 20:34:24 10° SW visible
09 Mar 7.7 19:50:07 10° N 19:55:04 73° WNW 20:00:05 10° SSW visible
